Wind_Speed
10 10 10 11 12 14 16 17 18 19 21 22 23 24 25 26 26 26 28 30 33 34 33 32 32 32 31 30 28 26 23 23 22 20 22 24 25 24 25 26 25 28 28 27 25 26 27
13 13 14 16 17 18 20 21 22 23 24 24 25 27 28 29 30 32 35 37 39 40 40 39 36 34 34 34 28 26 25 24 23 25 26 26 25 24 27 29 28 29 30 30 29 28 29
15 17 18 19 20 22 23 25 26 27 27 28 29 30 31 33 34 35 37 37 37 37 38 39 37 38 40 32 31 29 28 27 27 27 26 27 26 27 28 29 29 28 31 31 31 25 26
17 18 20 22 23 24 25 27 28 29 30 31 33 35 36 37 38 37 37 35 33 31 32 33 32 33 37 34 31 29 29 28 26 27 28 29 29 29 28 31 29 27 30 28 28 22 23
19 21 23 25 27 28 29 29 31 32 34 35 35 36 37 38 37 35 33 32 29 26 26 26 26 26 30 27 23 21 20 19 19 20 21 24 27 30 29 32 25 28 26 25 26 24 24
22 24 26 28 29 31 33 33 34 37 38 38 38 37 36 36 37 34 31 30 29 28 26 21 20 18 18 19 19 19 19 19 18 22 26 27 26 27 30 31 26 21 21 24 22 26 24
25 27 28 29 31 32 34 37 37 38 40 40 41 39 36 33 34 34 29 29 31 31 24 26 23 26 27 26 27 25 27 30 27 26 27 27 29 34 35 33 31 28 27 25 22 31 36
27 28 30 31 32 34 37 39 40 40 40 41 39 38 33 29 30 30 29 28 29 30 32 25 32 34 31 32 35 34 33 33 34 35 34 38 46 42 37 37 37 37 34 31 29 31 33
27 30 32 33 35 36 38 39 38 39 38 38 36 34 31 26 27 28 28 27 27 30 34 30 22 16 15 16 18 19 22 27 31 32 34 35 27 16 23 32 38 41 34 32 30 23 27
30 31 33 35 36 37 37 39 40 37 35 32 30 31 29 26 28 27 28 27 27 28 25 13 8 5 5 6 8 9 10 12 19 19 22 23 22 31 34 36 32 28 24 27 27 19 15
33 35 36 37 37 37 38 40 40 37 34 31 30 29 29 30 30 28 27 26 24 24 8 9 11 12 11 9 11 12 14 16 19 20 17 15 13 14 16 15 24 24 20 21 19 15 13
37 37 36 37 39 40 39 38 36 35 34 32 31 33 32 31 31 30 28 26 21 7 9 7 11 11 13 13 16 17 15 18 19 21 26 25 26 21 19 16 16 14 12 12 13 9 12
37 38 39 39 40 38 36 34 34 34 34 34 34 34 35 33 32 30 29 25 10 8 9 9 13 15 19 20 21 22 22 24 21 14 18 22 26 29 27 27 25 22 11 5 8 6 9
37 38 38 36 37 37 38 39 39 38 37 36 35 36 37 36 34 32 28 19 10 15 18 24 23 24 25 25 25 26 28 30 30 28 20 15 16 20 20 31 18 25 26 14 9 11 6
36 36 37 39 40 41 42 43 45 45 46 47 41 39 42 40 36 31 26 16 18 20 21 21 23 26 26 19 20 17 22 25 24 22 21 9 12 14 23 19 25 15 21 26 20 17 7
37 38 39 41 43 43 46 47 49 49 51 55 54 45 41 38 31 26 24 28 22 21 26 26 22 16 16 18 15 12 13 11 12 19 24 15 15 20 20 20 22 25 13 8 14 7 12
38 41 43 45 46 47 49 50 50 49 50 51 51 47 37 26 27 34 27 28 28 25 25 23 22 22 23 22 20 18 16 21 21 18 16 22 18 16 13 19 20 20 19 13 9 13 9
43 45 46 46 47 47 49 50 49 47 46 48 45 43 35 39 20 13 21 25 25 26 26 26 31 31 27 24 25 24 25 21 15 14 14 17 14 19 24 19 20 21 17 17 14 12 11
44 46 46 48 49 50 51 49 47 43 37 37 37 42 27 3 17 25 24 23 25 27 25 24 18 19 19 18 16 15 18 18 23 25 11 14 13 18 17 15 26 28 26 27 23 21 18
44 47 49 50 52 52 50 46 43 35 26 25 27 28 36 35 18 13 19 27 20 17 23 24 25 24 24 28 25 27 21 24 22 24 20 22 26 27 21 16 7 10 19 18 16 9 7
48 50 51 52 50 49 45 39 32 29 21 22 28 30 31 32 32 32 35 30 33 36 30 19 23 25 27 38 35 31 25 24 28 28 27 29 27 26 31 22 15 21 19 20 21 19 14
49 51 51 48 43 38 31 28 28 27 27 25 27 28 31 37 38 41 37 37 38 34 31 24 26 23 24 29 31 39 37 31 29 29 21 26 14 18 17 16 13 14 14 16 20 23 23
49 47 42 37 33 30 27 24 26 26 25 24 24 28 37 44 37 35 40 36 35 33 35 22 24 26 31 32 33 31 29 33 34 18 18 20 15 12 14 13 9 11 17 25 21 26 27
40 35 32 30 29 28 26 25 24 23 22 24 25 29 33 37 34 31 32 35 35 28 31 28 27 27 28 31 35 33 29 25 29 28 22 24 22 18 15 14 10 11 15 17 17 22 24
29 28 28 27 26 25 25 24 24 23 23 25 24 27 28 32 32 30 25 31 28 24 21 25 21 16 18 19 25 19 11 17 17 14 13 16 18 19 14 10 8 10 14 12 14 15 18
25 24 23 25 27 26 26 26 24 23 23 24 24 22 23 28 26 32 30 26 26 23 26 22 19 20 20 18 22 13 9 11 5 3 7 14 14 20 11 6 6 8 12 15 16 12 16
22 24 26 26 27 29 28 27 26 24 22 22 17 17 21 29 25 30 22 22 21 26 25 18 24 25 19 20 17 11 5 4 2 6 6 11 10 20 22 15 4 8 9 10 9 7 13
23 25 26 29 29 28 29 27 27 26 23 22 19 18 19 21 19 17 19 19 22 20 21 25 29 14 9 11 11 11 5 4 5 9 7 8 6 6 10 9 4 9 10 12 11 10 12
26 28 30 31 31 29 27 28 25 26 24 23 21 20 20 17 21 23 18 19 23 19 21 25 24 24 24 24 17 6 8 5 8 5 8 6 6 5 4 4 6 6 10 12 11 9 10
Wind_Direction
10 4 357 350 346 343 340 337 336 335 334 333 331 329 326 324 322 320 317 315 311 307 302 299 297 293 291 290 293 291 289 289 284 278 274 272 269 269 265 266 265 265 273 275 277 277 277
348 346 344 342 340 339 339 338 336 335 334 332 331 328 326 324 321 319 316 311 307 302 297 293 290 289 285 283 285 284 285 281 278 275 270 267 268 266 264 266 262 269 273 275 275 276 277
336 336 335 336 338 339 338 335 333 332 332 330 328 326 325 322 320 318 315 311 306 301 295 292 288 284 281 285 278 276 277 274 271 265 261 262 261 260 265 268 265 265 266 272 274 274 274
332 331 331 331 333 333 332 330 329 328 328 327 327 325 324 323 323 322 319 315 312 308 301 297 294 288 282 282 279 273 267 263 261 259 258 258 258 255 254 258 258 261 265 268 274 273 273
327 328 329 329 330 329 327 326 326 326 326 325 325 323 323 321 321 321 320 315 314 310 305 302 296 291 287 283 273 262 251 244 243 247 253 256 255 252 253 253 257 257 254 259 260 270 270
326 328 328 328 327 325 323 323 324 324 325 326 324 324 322 320 321 322 321 316 313 312 312 309 301 292 281 273 261 251 241 233 242 258 257 252 247 244 245 243 238 250 242 249 250 265 272
327 327 325 324 323 321 320 321 322 321 321 323 323 322 323 321 320 320 320 316 316 315 314 306 294 284 273 266 256 247 248 259 256 250 246 249 248 243 259 264 272 261 261 258 258 269 277
327 326 324 323 323 323 322 320 319 319 318 319 320 319 319 321 320 319 321 321 317 313 309 299 290 282 274 264 262 261 260 258 254 253 253 256 255 261 263 260 260 263 263 263 272 276 275
325 325 325 324 323 322 322 321 321 321 321 321 320 317 319 320 318 319 321 320 319 317 313 310 291 278 273 265 262 259 255 252 253 254 254 253 253 261 256 257 256 257 257 261 266 271 276
325 325 324 323 324 324 324 321 320 320 320 322 321 319 320 320 319 322 322 322 323 323 314 302 282 269 244 248 262 261 256 246 248 257 254 262 263 257 255 255 254 259 264 268 267 264 261
326 327 326 324 324 324 323 320 320 320 320 321 321 320 320 322 320 320 320 320 322 326 316 292 260 260 261 264 267 266 257 247 255 257 245 252 256 260 254 269 248 262 263 265 261 243 252
324 323 323 322 321 320 318 318 319 319 319 319 319 318 317 317 317 317 317 318 316 315 250 263 257 259 266 270 272 267 261 255 257 253 253 251 256 254 254 248 249 251 242 249 249 234 253
322 322 322 321 321 321 320 320 319 317 316 317 318 315 314 315 315 313 312 311 302 221 278 263 267 266 266 273 267 263 264 258 253 253 260 271 258 264 252 249 244 240 210 231 224 203 252
323 323 323 324 322 320 320 318 316 313 311 311 311 310 309 309 309 309 307 294 229 270 258 275 283 281 278 279 272 265 257 254 251 246 259 262 266 246 249 237 234 241 216 217 247 245 266
324 324 322 321 319 318 318 316 315 315 314 311 310 309 307 307 307 304 295 248 272 276 271 272 279 293 284 273 254 261 257 258 254 251 235 252 252 250 238 236 224 223 215 235 253 256 259
323 321 320 319 316 316 315 314 313 313 312 311 311 310 308 309 307 301 284 264 260 262 266 277 285 275 276 275 268 264 260 265 259 246 239 248 267 259 243 240 229 222 220 202 212 236 234
320 319 317 314 315 316 314 313 312 313 314 312 314 315 318 306 306 295 273 270 273 270 276 281 278 271 271 275 264 261 255 262 266 252 237 238 241 249 240 224 222 215 223 219 225 233 248
317 315 314 315 315 314 313 313 314 316 316 313 312 311 313 311 298 288 289 287 288 282 279 274 275 273 267 266 272 260 258 250 254 238 245 244 253 252 250 251 237 234 237 233 235 227 241
316 315 316 316 316 316 315 316 317 316 315 310 309 311 321 303 306 301 285 293 295 297 298 290 276 272 273 269 270 263 265 259 248 252 248 244 236 253 251 251 244 245 248 246 239 247 237
317 317 317 318 318 318 319 319 316 315 318 301 302 298 299 303 307 306 303 301 292 308 304 298 290 287 287 272 273 274 268 268 277 287 272 266 252 242 247 254 186 204 223 221 222 216 235
318 319 320 321 321 321 321 323 329 332 304 295 297 295 302 298 298 296 298 292 280 299 297 301 299 293 293 300 306 293 280 289 293 286 278 254 262 263 258 242 240 235 222 220 233 246 249
321 322 323 324 325 328 327 330 328 337 328 298 290 313 325 308 310 304 294 289 287 294 299 294 292 302 292 284 290 283 283 283 282 270 279 287 297 308 294 281 266 262 253 251 251 260 260
325 326 329 332 336 338 342 336 334 332 325 323 319 298 296 305 315 303 298 294 295 290 297 296 294 297 293 294 299 297 291 291 281 277 275 281 278 285 277 274 255 252 253 256 247 250 252
332 337 343 347 350 351 346 340 335 332 322 316 312 310 308 305 309 315 306 314 291 297 297 298 291 292 297 287 295 297 287 291 274 271 269 273 271 267 264 249 229 259 256 252 239 246 250
356 4 11 12 7 2 357 347 339 334 325 319 317 317 312 308 310 318 307 316 321 302 308 306 312 301 312 290 301 304 284 285 280 261 259 268 261 262 257 238 269 268 245 233 234 235 236
14 18 12 7 6 2 358 354 349 340 327 317 321 315 310 308 315 312 318 312 304 320 321 314 314 315 311 291 294 262 257 250 242 243 244 264 263 237 251 242 231 243 245 236 237 240 239
12 6 4 1 359 356 353 351 345 339 335 332 336 321 318 308 314 321 323 317 313 315 308 314 318 318 310 284 273 292 292 203 240 261 272 286 259 232 246 255 203 252 231 205 197 230 226
356 354 353 349 345 342 345 343 342 337 333 325 328 318 314 313 320 322 316 311 313 311 286 298 311 317 317 274 294 303 257 239 237 248 258 243 246 224 228 231 218 268 209 201 210 215 221
343 340 339 338 343 340 334 337 334 335 331 323 318 318 316 312 308 310 317 312 313 304 307 308 295 292 297 290 269 275 281 271 265 254 271 245 262 292 274 204 197 165 202 201 208 216 221
Height
3166 3165 3163 3161 3159 3157 3155 3152 3150 3147 3145 3142 3139 3136 3133 3130 3127 3124 3121 3117 3113 3110 3107 3105 3102 3100 3099 3098 3098 3097 3096 3095 3095 3094 3094 3093 3092 3092 3089 3088 3088 3087 3087 3086 3086 3085 3084
3167 3164 3162 3160 3157 3155 3152 3149 3146 3143 3140 3137 3134 3131 3128 3125 3121 3118 3115 3111 3106 3102 3098 3095 3094 3092 3090 3090 3089 3089 3088 3088 3088 3087 3087 3086 3086 3086 3083 3082 3082 3081 3080 3079 3080 3080 3078
3164 3162 3160 3158 3154 3151 3148 3145 3143 3140 3137 3133 3130 3126 3122 3119 3116 3112 3107 3102 3097 3094 3089 3085 3084 3081 3079 3083 3081 3080 3080 3079 3079 3079 3078 3078 3078 3079 3078 3075 3074 3075 3074 3073 3072 3073 3070
3162 3159 3157 3154 3152 3149 3146 3143 3139 3136 3132 3129 3125 3120 3116 3111 3108 3105 3099 3094 3089 3085 3081 3077 3074 3071 3067 3070 3071 3070 3070 3070 3070 3070 3070 3071 3071 3070 3071 3070 3067 3069 3066 3066 3064 3066 3064
3159 3156 3153 3151 3148 3145 3141 3138 3134 3131 3127 3123 3119 3115 3110 3105 3101 3098 3093 3087 3083 3079 3075 3071 3067 3064 3061 3060 3060 3060 3062 3063 3063 3063 3063 3063 3063 3063 3065 3063 3063 3060 3057 3057 3058 3058 3056
3156 3153 3150 3147 3145 3141 3137 3132 3128 3124 3120 3116 3112 3107 3103 3096 3092 3088 3084 3080 3075 3071 3067 3063 3059 3059 3056 3054 3053 3054 3054 3055 3057 3057 3058 3057 3055 3054 3055 3056 3052 3052 3049 3049 3051 3052 3049
3153 3150 3146 3143 3141 3137 3132 3128 3123 3118 3113 3109 3104 3099 3095 3089 3083 3079 3078 3074 3071 3065 3061 3057 3054 3049 3047 3048 3047 3046 3047 3048 3048 3049 3049 3049 3048 3044 3047 3048 3049 3048 3046 3045 3047 3046 3043
3150 3147 3143 3140 3135 3131 3127 3123 3118 3113 3108 3102 3097 3094 3089 3084 3079 3074 3070 3065 3062 3058 3050 3051 3045 3038 3038 3038 3037 3039 3041 3041 3039 3039 3042 3041 3032 3039 3041 3040 3039 3038 3037 3038 3039 3040 3036
3146 3142 3139 3135 3131 3126 3121 3117 3112 3108 3102 3097 3092 3087 3084 3081 3075 3070 3065 3062 3058 3052 3044 3040 3032 3030 3031 3031 3029 3030 3032 3032 3031 3031 3030 3029 3030 3030 3030 3030 3031 3028 3029 3031 3033 3033 3030
3142 3138 3134 3131 3127 3122 3117 3112 3107 3100 3095 3090 3085 3082 3079 3077 3073 3066 3062 3058 3054 3049 3039 3033 3029 3027 3029 3029 3028 3027 3026 3028 3026 3025 3025 3022 3021 3020 3022 3021 3024 3021 3024 3024 3026 3027 3026
3138 3133 3130 3125 3120 3115 3111 3106 3101 3097 3092 3087 3082 3075 3073 3068 3066 3062 3059 3054 3051 3049 3044 3032 3028 3026 3025 3027 3025 3024 3023 3021 3020 3020 3021 3017 3015 3015 3015 3014 3017 3016 3017 3017 3019 3019 3020
3132 3127 3122 3118 3113 3108 3103 3099 3094 3090 3086 3082 3078 3072 3068 3065 3061 3058 3054 3052 3050 3052 3038 3028 3024 3023 3024 3023 3022 3020 3020 3018 3018 3015 3011 3012 3010 3010 3010 3011 3012 3012 3013 3014 3014 3016 3010
3126 3120 3115 3110 3105 3100 3094 3090 3086 3083 3079 3075 3072 3067 3061 3058 3056 3052 3050 3048 3050 3043 3032 3024 3022 3021 3019 3019 3017 3015 3014 3012 3014 3012 3007 3004 3003 3003 3005 3006 3006 3006 3010 3009 3007 3009 2996
3119 3114 3108 3102 3098 3093 3087 3082 3078 3073 3068 3066 3064 3058 3053 3050 3047 3045 3043 3043 3043 3031 3027 3021 3019 3017 3014 3014 3011 3009 3005 3003 3003 3003 3003 3000 2996 2996 2994 2995 2997 2996 3002 3000 2992 2987 2987
3112 3107 3101 3096 3092 3086 3081 3075 3070 3064 3059 3054 3055 3053 3044 3041 3039 3037 3036 3033 3028 3024 3019 3016 3014 3010 3007 3005 3005 3001 2999 2997 2996 2998 2999 2994 2989 2988 2988 2989 2992 2990 2989 2992 2992 2989 2990
3106 3101 3095 3090 3086 3079 3073 3068 3062 3056 3048 3039 3035 3039 3036 3031 3029 3028 3027 3021 3019 3017 3014 3011 3009 3008 3002 3001 3001 2997 2993 2989 2988 2988 2989 2987 2985 2983 2982 2984 2984 2984 2986 2988 2989 2984 2977
3099 3094 3089 3084 3078 3071 3066 3060 3053 3046 3038 3029 3023 3019 3024 3020 3022 3020 3014 3011 3009 3010 3008 3008 3002 2999 2997 2996 2993 2992 2986 2983 2982 2981 2982 2982 2981 2978 2977 2975 2976 2977 2976 2977 2977 2975 2968
3093 3088 3082 3075 3068 3063 3056 3050 3044 3038 3031 3022 3016 3013 3014 3009 3012 3009 3007 3005 3003 3000 3002 2997 2994 2990 2989 2988 2985 2983 2979 2978 2976 2974 2974 2974 2971 2970 2972 2971 2970 2969 2970 2970 2969 2968 2969
3085 3079 3073 3065 3060 3054 3046 3040 3034 3030 3026 3015 3009 3004 3003 3004 3006 3005 3001 3000 2996 2995 2993 2990 2988 2985 2984 2982 2979 2974 2972 2969 2967 2968 2967 2966 2963 2962 2962 2964 2962 2962 2963 2963 2964 2965 2965
3077 3071 3064 3057 3049 3042 3036 3031 3025 3022 3018 3013 3010 3006 3003 3000 3000 2999 2997 2995 2993 2990 2987 2985 2981 2979 2977 2974 2974 2967 2965 2965 2963 2960 2961 2958 2956 2954 2950 2952 2952 2955 2956 2957 2960 2961 2960
3069 3062 3053 3046 3039 3032 3026 3021 3017 3014 3011 3009 3007 3005 3001 2999 2995 2994 2993 2990 2987 2985 2983 2981 2975 2973 2973 2967 2962 2961 2961 2959 2958 2956 2955 2955 2948 2949 2946 2945 2946 2949 2950 2951 2952 2953 2954
3060 3052 3045 3038 3031 3025 3020 3017 3014 3011 3006 3005 3004 3000 2995 2990 2988 2985 2984 2982 2977 2974 2976 2972 2970 2968 2966 2963 2962 2956 2956 2954 2951 2950 2948 2947 2944 2943 2941 2942 2940 2941 2941 2945 2947 2947 2947
3051 3045 3038 3031 3025 3021 3017 3014 3011 3008 3003 2998 2997 2995 2990 2987 2984 2982 2978 2973 2969 2970 2965 2965 2964 2961 2957 2957 2952 2947 2944 2944 2944 2942 2942 2941 2939 2939 2938 2939 2936 2936 2935 2939 2939 2938 2939
3045 3038 3033 3028 3023 3018 3014 3011 3008 3005 3001 2997 2993 2988 2985 2980 2978 2976 2973 2968 2964 2963 2960 2958 2957 2954 2952 2947 2944 2939 2936 2935 2934 2933 2936 2935 2936 2937 2932 2932 2927 2925 2928 2930 2930 2931 2933
3041 3036 3032 3028 3023 3018 3013 3008 3003 3000 2998 2993 2989 2987 2980 2974 2972 2970 2966 2963 2957 2956 2956 2953 2950 2947 2943 2941 2938 2932 2929 2929 2925 2926 2928 2929 2930 2930 2928 2924 2924 2925 2924 2926 2926 2928 2927
3041 3036 3033 3029 3022 3016 3010 3005 3000 2996 2992 2987 2986 2981 2976 2971 2968 2965 2961 2958 2955 2951 2949 2946 2945 2942 2940 2936 2933 2928 2926 2924 2924 2922 2923 2925 2925 2927 2923 2920 2917 2918 2919 2921 2922 2923 2923
3041 3037 3031 3026 3020 3015 3009 3003 2997 2991 2988 2985 2979 2977 2972 2965 2961 2959 2956 2953 2950 2948 2944 2941 2940 2937 2934 2930 2928 2925 2921 2919 2920 2921 2919 2920 2920 2919 2917 2916 2914 2915 2917 2918 2922 2923 2918
3040 3034 3029 3025 3019 3013 3007 3000 2996 2991 2984 2981 2978 2972 2969 2964 2960 2956 2954 2951 2948 2945 2942 2940 2937 2933 2931 2929 2927 2924 2920 2919 2919 2918 2917 2918 2917 2914 2913 2912 2913 2913 2915 2917 2916 2914 2915
3036 3032 3026 3020 3015 3009 3003 2998 2992 2988 2983 2975 2972 2967 2964 2961 2957 2953 2950 2948 2945 2941 2938 2936 2934 2931 2929 2925 2923 2920 2919 2917 2917 2915 2915 2917 2916 2914 2914 2911 2911 2909 2911 2911 2912 2912 2913